{"data":{"norad_id":53935,"epoch":"2026-07-11T03:37:24.688416Z","epoch_age_seconds":6251089,"freshness":"OLD","line1":"1 53935U 22119BB  26192.15098019  .05862245  12334-4  49574-3 0  9994","line2":"2 53935  53.2043  49.8667 0010949 282.5413  77.4411 16.38540172211445","mean_motion":16.38540172,"eccentricity":0.0010949,"inclination_deg":53.2043,"raan_deg":49.8667,"arg_perigee_deg":282.5413,"mean_anomaly_deg":77.4411,"bstar":0.00049574,"rev_number":21144,"period_min":87.883106231222,"perigee_km":162.51951866292,"apogee_km":176.85794745317,"semimajor_km":6547.825733058,"source":"CELESTRAK","updated_at":"2026-07-11T09:00:52.270856Z"}}